| time (UTC) | temp F | wind direction | speed MPH | gust MPH | rain 1hr in | rain 24hr in | rain mn in | humidity % | barometer mb |
| 20260505085537 | 64 | 216 | 0.0 | 2.0 | 0.00 | 0.00 | 0.00 | 62 | |
| 20260505084557 | 64 | 214 | 0.0 | 1.0 | 0.00 | 0.00 | 0.00 | 61 | |
| 20260505083517 | 65 | 200 | 0.0 | 2.0 | 0.00 | 0.00 | 0.00 | 61 | |
| 20260505082518 | 65 | 216 | 0.0 | 1.0 | 0.00 | 0.00 | 0.00 | 61 | |
| 20260505081601 | 65 | 225 | 0.0 | 1.0 | 0.00 | 0.00 | 0.00 | 60 | |
| 20260505080515 | 65 | 202 | 0.0 | 5.0 | 0.00 | 0.00 | 0.00 | 60 | |
| 20260505075515 | 65 | 224 | 1.0 | 2.0 | 0.00 | 0.00 | 0.00 | 59 | |
| 20260505074538 | 66 | 232 | 1.0 | 2.0 | 0.00 | 0.00 | 0.00 | 59 | |
| 20260505073516 | 66 | 222 | 1.0 | 3.0 | 0.00 | 0.00 | 0.00 | 58 | |
| 20260505072516 | 66 | 227 | 2.0 | 4.0 | 0.00 | 0.00 | 0.00 | 58 | |
| 20260505071542 | 66 | 225 | 2.0 | 4.0 | 0.00 | 0.00 | 0.00 | 57 | |
| 20260505070518 | 66 | 220 | 2.0 | 6.0 | 0.00 | 0.00 | 0.00 | 57 | |
| 20260505065515 | 67 | 212 | 3.0 | 11.0 | 0.00 | 0.00 | 0.00 | 57 | |
| 20260505064515 | 67 | 214 | 3.0 | 9.0 | 0.00 | 0.00 | 0.00 | 57 | |
| 20260505063537 | 67 | 216 | 2.0 | 4.0 | 0.00 | 0.00 | 0.00 | 57 | |
| 20260505062536 | 67 | 223 | 2.0 | 7.0 | 0.00 | 0.00 | 0.00 | 56 | |
| 20260505061537 | 67 | 219 | 4.0 | 9.0 | 0.00 | 0.00 | 0.00 | 57 | |
| 20260505060519 | 67 | 215 | 2.0 | 6.0 | 0.00 | 0.00 | 0.00 | 57 | |
| 20260505055535 | 67 | 221 | 1.0 | 4.0 | 0.00 | 0.00 | 0.00 | 57 | |
| 20260505054515 | 67 | 221 | 2.0 | 4.0 | 0.00 | 0.00 | 0.00 | 56 | |
| 20260505053515 | 67 | 217 | 2.0 | 6.0 | 0.00 | 0.00 | 0.00 | 56 | |
| 20260505052516 | 68 | 216 | 2.0 | 6.0 | 0.00 | 0.00 | 0.00 | 55 | |
| 20260505051518 | 68 | 213 | 1.0 | 7.0 | 0.00 | 0.00 | 0.00 | 55 | |
| 20260505050516 | 68 | 216 | 2.0 | 5.0 | 0.00 | 0.00 | 0.00 | 55 | |
| 20260505041517 | 69 | 213 | 3.0 | 10.0 | 0.00 | 0.00 | 0.00 | 55 | |
| 20260505040538 | 69 | 218 | 2.0 | 5.0 | 0.00 | 0.00 | 0.00 | 55 | |
| 20260505035517 | 69 | 219 | 1.0 | 3.0 | 0.00 | 0.00 | 0.00 | 55 | |
| 20260505034517 | 69 | 213 | 2.0 | 5.0 | 0.00 | 0.00 | 0.00 | 56 | |
| 20260505033516 | 69 | 210 | 2.0 | 6.0 | 0.00 | 0.00 | 0.00 | 56 | |
| 20260505032515 | 69 | 216 | 2.0 | 5.0 | 0.00 | 0.00 | 0.00 | 56 | |
| 20260505031537 | 69 | 218 | 1.0 | 3.0 | 0.00 | 0.00 | 0.00 | 57 | |
| 20260505030540 | 69 | 218 | 1.0 | 2.0 | 0.00 | 0.00 | 0.00 | 57 | |
| 20260505025516 | 69 | 213 | 1.0 | 2.0 | 0.00 | 0.00 | 0.00 | 56 | |
| 20260505024519 | 69 | 208 | 1.0 | 7.0 | 0.00 | 0.00 | 0.00 | 56 | |
| 20260505023517 | 69 | 212 | 1.0 | 4.0 | 0.00 | 0.00 | 0.00 | 56 | |
| 20260505022515 | 69 | 212 | 1.0 | 3.0 | 0.00 | 0.00 | 0.00 | 56 | |
| 20260505021558 | 69 | 217 | 1.0 | 5.0 | 0.00 | 0.00 | 0.00 | 56 | |
| 20260505020515 | 70 | 216 | 1.0 | 4.0 | 0.00 | 0.00 | 0.00 | 56 | |
| 20260505015517 | 70 | 195 | 0.0 | 2.0 | 0.00 | 0.00 | 0.00 | 56 | |
| 20260505014516 | 70 | 198 | 0.0 | 2.0 | 0.00 | 0.00 | 0.00 | 56 | |
| 20260505013516 | 70 | 192 | 0.0 | 2.0 | 0.00 | 0.00 | 0.00 | 56 | |
| 20260505012517 | 70 | 205 | 0.0 | 1.0 | 0.00 | 0.00 | 0.00 | 55 | |
| 20260505011515 | 71 | 203 | 0.0 | 2.0 | 0.00 | 0.00 | 0.00 | 55 | |
| 20260505010515 | 71 | 208 | 1.0 | 2.0 | 0.00 | 0.00 | 0.00 | 54 | |
| 20260505005535 | 71 | 202 | 1.0 | 3.0 | 0.00 | 0.00 | 0.00 | 54 | |
| 20260505004517 | 71 | 212 | 1.0 | 2.0 | 0.00 | 0.00 | 0.00 | 53 | |
| 20260505003516 | 72 | 214 | 1.0 | 2.0 | 0.00 | 0.00 | 0.00 | 52 | |
| 20260505002517 | 72 | 214 | 1.0 | 2.0 | 0.00 | 0.00 | 0.00 | 51 | |
| 20260505001517 | 73 | 212 | 1.0 | 2.0 | 0.00 | 0.00 | 0.00 | 50 | |
| 20260505000516 | 73 | 213 | 1.0 | 2.0 | 0.00 | 0.00 | 0.00 | 49 | |
| 20260504235516 | 73 | 205 | 2.0 | 4.0 | 0.00 | 0.00 | 0.00 | 48 | |
| 20260504234517 | 74 | 212 | 1.0 | 4.0 | 0.00 | 0.00 | 0.00 | 48 | |
| 20260504233517 | 74 | 224 | 2.0 | 5.0 | 0.00 | 0.00 | 0.00 | 47 | |
| 20260504232516 | 74 | 224 | 2.0 | 4.0 | 0.00 | 0.00 | 0.00 | 47 | |
| 20260504231517 | 75 | 216 | 2.0 | 5.0 | 0.00 | 0.00 | 0.00 | 46 | |
| 20260504230517 | 75 | 223 | 2.0 | 3.0 | 0.00 | 0.00 | 0.00 | 43 | |
| 20260504225515 | 75 | 227 | 2.0 | 8.0 | 0.00 | 0.00 | 0.00 | 42 | |
| 20260504224515 | 76 | 225 | 4.0 | 9.0 | 0.00 | 0.00 | 0.00 | 43 | |
| 20260504223516 | 76 | 224 | 3.0 | 7.0 | 0.00 | 0.00 | 0.00 | 43 | |
| 20260504222538 | 76 | 224 | 3.0 | 10.0 | 0.00 | 0.00 | 0.00 | 44 | |
| 20260504221517 | 75 | 228 | 2.0 | 4.0 | 0.00 | 0.00 | 0.00 | 49 | |
| 20260504220520 | 75 | 202 | 0.0 | 2.0 | 0.00 | 0.00 | 0.00 | 50 | |
| 20260504215535 | 75 | 182 | 0.0 | 1.0 | 0.00 | 0.00 | 0.00 | 50 | |
| 20260504214515 | 75 | 0.0 | 0.0 | 0.00 | 0.00 | 0.00 | 49 | ||
| 20260504213518 | 75 | 209 | 0.0 | 1.0 | 0.00 | 0.00 | 0.00 | 48 | |
| 20260504212536 | 75 | 198 | 1.0 | 2.0 | 0.00 | 0.00 | 0.00 | 48 | |
| 20260504211516 | 75 | 201 | 0.0 | 1.0 | 0.00 | 0.00 | 0.00 | 47 | |
| 20260504210517 | 75 | 226 | 1.0 | 3.0 | 0.00 | 0.00 | 0.00 | 47 | |
| 20260504205517 | 76 | 232 | 1.0 | 2.0 | 0.00 | 0.00 | 0.00 | 45 | |
| 20260504204515 | 75 | 226 | 1.0 | 2.0 | 0.00 | 0.00 | 0.00 | 47 | |
| 20260504203515 | 75 | 220 | 2.0 | 5.0 | 0.00 | 0.00 | 0.00 | 47 | |
| 20260504202515 | 75 | 222 | 2.0 | 5.0 | 0.00 | 0.00 | 0.00 | 49 | |
| 20260504201518 | 74 | 236 | 1.0 | 3.0 | 0.00 | 0.00 | 0.00 | 52 | |
| 20260504200516 | 74 | 238 | 1.0 | 2.0 | 0.00 | 0.00 | 0.00 | 51 | |
| 20260504195517 | 74 | 232 | 1.0 | 2.0 | 0.00 | 0.00 | 0.00 | 52 | |
| 20260504194517 | 73 | 228 | 2.0 | 4.0 | 0.00 | 0.00 | 0.00 | 52 | |
| 20260504193515 | 73 | 228 | 2.0 | 4.0 | 0.00 | 0.00 | 0.00 | 52 | |
| 20260504192516 | 73 | 224 | 2.0 | 3.0 | 0.00 | 0.00 | 0.00 | 53 | |
| 20260504191515 | 72 | 231 | 1.0 | 3.0 | 0.00 | 0.00 | 0.00 | 55 | |
| 20260504190516 | 72 | 227 | 2.0 | 4.0 | 0.00 | 0.00 | 0.00 | 56 | |
| 20260504185516 | 71 | 224 | 1.0 | 4.0 | 0.00 | 0.00 | 0.00 | 59 | |
| 20260504184537 | 70 | 229 | 0.0 | 2.0 | 0.00 | 0.00 | 0.00 | 60 | |
| 20260504183518 | 70 | 228 | 1.0 | 4.0 | 0.00 | 0.00 | 0.00 | 59 | |
| 20260504182515 | 70 | 207 | 2.0 | 7.0 | 0.00 | 0.00 | 0.00 | 60 | |
| 20260504181515 | 69 | 216 | 2.0 | 4.0 | 0.00 | 0.00 | 0.00 | 59 | |
| 20260504180515 | 69 | 231 | 1.0 | 3.0 | 0.00 | 0.00 | 0.00 | 59 | |
| 20260504175537 | 69 | 209 | 3.0 | 8.0 | 0.00 | 0.00 | 0.00 | 57 | |
| 20260504174517 | 70 | 210 | 4.0 | 9.0 | 0.00 | 0.00 | 0.00 | 56 | |
| 20260504173517 | 70 | 211 | 2.0 | 6.0 | 0.00 | 0.00 | 0.00 | 57 | |
| 20260504172517 | 70 | 214 | 3.0 | 11.0 | 0.00 | 0.00 | 0.00 | 57 | |
| 20260504171538 | 69 | 212 | 2.0 | 5.0 | 0.00 | 0.00 | 0.00 | 59 | |
| 20260504170515 | 69 | 212 | 3.0 | 13.0 | 0.00 | 0.00 | 0.00 | 58 | |
| 20260504150516 | 64 | 234 | 0.0 | 2.0 | 0.00 | 0.00 | 0.00 | 63 | |
| 20260504140518 | 61 | 209 | 1.0 | 2.0 | 0.00 | 0.00 | 0.00 | 64 | |
| 20260504130536 | 56 | 202 | 1.0 | 4.0 | 0.00 | 0.00 | 0.00 | 69 | |
| 20260504110517 | 55 | 216 | 2.0 | 4.0 | 0.00 | 0.00 | 0.00 | 65 | |
| 20260504100515 | 54 | 203 | 1.0 | 4.0 | 0.00 | 0.00 | 0.00 | 63 |